Regional Weather Roundup
Issued by NWS Wakefield, VA

Home | Current Version | Previous Version | Graphics & Text | Print | Product List | Glossary On
Versions: 1 2 3 4 5 6 7 8 9 10 11 12 13 14 15 16 17 18 19 20 21 22 23 24 25 26 27
000
ASUS41 KAKQ 241210
RWRAKQ

REGIONAL WEATHER ROUNDUP
NATIONAL WEATHER SERVICE WAKEFIELD VA
800 AM EDT FRI OCT 24 2014

Note: "fair" indicates few or no clouds below 12,000 feet with no
significant weather and/or obstructions to visibility. * = Denotes
station may not report precipitation (e.g., rain,snow,etc.),
thunder or fog.

VAZ042-051-052>054-056-241300-
NORTHERN VIRGINIA

CITY           SKY/WX    TMP DP  RH WIND       PRES   REMARKS
WASH NATIONAL  PTCLDY    56  42  59 NW12G17   29.98R
DULLES         PTCLDY    51  42  71 NW14      29.99R
FORT BELVOIR   CLEAR     53  43  68 NW10      29.98R
QUANTICO       PTCLDY    54  42  64 NW7       30.00R
FREDERICKSBRG* PTCLDY    55  44  66 NW10      29.99R
STAFFORD*      PTCLDY    51  41  69 NW3       30.03R
WARRENTON      CLEAR     51  47  84 NW3       29.99S
CULPEPER*      CLEAR     50  43  76 CALM      30.00R
MANASSAS*      NOT AVBL
LEESBURG*      CLEAR     52  45  76 NW10G18   30.00S
WINCHESTER     CLEAR     52  37  58 W15G23    30.01S
FRONT ROYAL*   PTSUNNY   46  41  81 CALM      30.01F
LURAY*         PTSUNNY   50  43  76 SW7       30.04R
$$

VAZ048-049-060>072-079>083-241300-
CENTRAL AND SOUTH CENTRAL VIRGINIA...AND NORTH CENTRAL NORTH CAROLINA

CITY           SKY/WX    TMP DP  RH WIND       PRES   REMARKS
RICHMOND       PTCLDY    50  42  74 NW7       29.99S
CHESTERFIELD*    N/A    N/A N/A N/A MISG        N/A
PETERSBURG*    CLEAR     47  41  79 W5        30.01R
HANOVER        PTCLDY    45  41  86 W3        30.01S
TAPPAHANNOCK*  PTCLDY    49  40  71 W3        29.99R
CHARLOTTSVILLE MOCLDY    50  40  68 SW5       30.01S
ORANGE*        PTCLDY    43  41  93 S5        30.01S
LOUISA*        MOCLDY    43  39  87 CALM      29.99S
FARMVILLE*     MOCLDY    43  43 100 CALM      30.01S
CREWE*         SUNNY     47  40  77 NW3       30.01S
FORT PICKETT*  SUNNY     45  41  86 W3        30.02S
LUNENBURG*     SUNNY     46  42  85 W5        30.02S
SOUTH HILL*    CLEAR     48  43  81 NW5       30.07S
LAWRENCEVILLE* SUNNY     44  42  93 NW3       30.01S
ROANOKE RAPIDS SUNNY     45  43  93 NW3       30.01S
RALEIGH        CLOUDY    46  41  82 CALM      30.03R
$$

VAZ088>098-241300-
SOUTHEAST VIRGINIA

CITY           SKY/WX    TMP DP  RH WIND       PRES   REMARKS
NORFOLK        PTCLDY    56  43  61 N9G18     29.96S
VIRGINIA BEACH MOCLDY    57  45  64 NW13G21   29.96R
NORFOLK NAVAL  MOCLDY    58  44  60 NW9G21    29.98R
WEST POINT*    PTCLDY    53  43  69 NW5       29.99F
NEWPORT NEWS   PTCLDY    55  43  63 NW9       29.98R
LANGLEY AFB    PTCLDY    53  44  73 W8        29.97S
FORT EUSTIS    PTCLDY    54  44  67 NW7       29.97R
WILLIAMSBURG*  PTCLDY    52  45  76 N7        29.99R
HR EXEC AP*    MOSUNNY   46  43  87 NW5       30.00R
FRANKLIN*      CLEAR     46  43  87 CALM      29.99S
WAKEFIELD      CLEAR     47  42  83 CALM      30.00R
$$

VAZ020-022-025-037-045-241300-
WEST CENTRAL AND SOUTHWEST VIRGINIA

CITY           SKY/WX    TMP DP  RH WIND       PRES   REMARKS
STAUNTON*      MOCLDY    38  36  90 CALM      30.07S
HOT SPRINGS VA CLOUDY    40  38  93 NW14      30.04S
LYNCHBURG      PTCLDY    39  38  96 CALM      30.05R
DANVILLE       PTCLDY    50  40  68 N8        30.03F
SOUTH BOSTON*  NOT AVBL
MARTINSVILLE   MOCLDY    39  39 100 CALM      30.07S FOG
ROANOKE        MOCLDY    48  39  71 CALM      30.08F
BLACKSBURG     CLOUDY    41  41 100 CALM      30.10S
DUBLIN*        MOCLDY    42  40  93 CALM      30.10S
MARION*        PTCLDY    37  36  94 W3        30.13S FOG
HILLSVILLE*    MOCLDY    41  38  90 W3        30.09S
RICHLANDS*     PTSUNNY   42  40  95 CALM      30.11R
WISE*          MOCLDY    41  39  93 CALM      30.12S
ABINGDON*      MOCLDY    40  39  97 E3        30.11F FOG
$$

MDZ021>025-VAZ099-100-241300-
SOUTHERN MARYLAND AND THE DELMARVA PENINSULA

CITY           SKY/WX    TMP DP  RH WIND       PRES   REMARKS
PATUXENT RIVER CLEAR     52  42  69 W14       29.95R
BAY BRIDGE APT   N/A     54  43  66 W13G18    29.93R
LEONARDTOWN    CLEAR     50  43  76 W7        29.98R
DOVER          CLOUDY    55  46  71 W7        29.86R
GEORGETOWN     CLOUDY    54  44  69 NW7       29.89S
EASTON         NOT AVBL
CAMBRIDGE      PTCLDY    55  45  67 NW10G18   29.92R
SALISBURY      CLOUDY    57  44  62 W9        29.90R
OCEAN CITY     MOCLDY    52  44  74 NW7       29.89R
WALLOPS ISLAND PTCLDY    55  45  68 NW9       29.92R
ACCOMACK*      CLEAR     55  43  62 NW9G23    29.93R
$$

NCZ012>017-030>032-241300-
EASTERN NORTH CAROLINA

CITY           SKY/WX    TMP DP  RH WIND       PRES   REMARKS
ELIZABETH CITY PTCLDY    50  43  77 W7        29.97F
AHOSKIE*       CLEAR     45  41  88 CALM      30.01R
EDENTON*       PTCLDY    50  45  83 NW3       29.99S
CURRITUCK*     PTCLDY    48  42  78 W6        29.97S
KILL DEVIL HLS PTCLDY    54  46  73 NW8       29.94S
MANTEO         PTCLDY    56  47  72 NW9       29.97R
CAPE HATTERAS  PTCLDY    57  49  74 N9G20     29.97R
TARBORO*       PTSUNNY   48  43  85 CALM      30.03S
GOLDSBORO      MOCLDY    48  47  97 W5        30.01R
WASHINGTON     MOCLDY    47  44  90 CALM      30.01S
GREENVILLE     MOCLDY    46  45  93 CALM      30.03S
NEW BERN       PTCLDY    51  45  79 NW5       30.03R
WILMINGTON     MOCLDY    49  45  86 CALM      30.02S
$$

VAZ048-241300-
ELSEWHERE

CITY           SKY/WX    TMP DP  RH WIND       PRES   REMARKS
HARRISBURG PA  PTCLDY    54  43  66 NW12      29.92S
BALTIMORE      PTCLDY    52  43  71 W6        29.94R
ANNAPOLIS      CLEAR     54  44  69 W6        29.94R
ANDREWS AFB    CLEAR     53  43  68 NW15      29.96R
WILMINGTON DE  PTCLDY    57  46  66 NW15      29.87F
PHILADELPHIA   MOCLDY    57  45  64 NW9       29.85F
WILDWOOD NJ*   CLOUDY    57  45  62 NW9G16    29.87R
ATLANTIC CITY  CLEAR     47  45  93 W3        29.84R
HENDERSON NC   CLOUDY    48  40  72 NW7       30.03R
GREENSBORO     MOCLDY    45  40  82 N5        30.03S
ROCKY MOUNT    MOCLDY    47  42  83 CALM      30.02S
FAYETTEVILLE   MOCLDY    50  42  74 N6        30.03R
CHARLOTTE      MOCLDY    41  38  89 CALM      30.06R
$$

VAZ100-241300-
MARINE

STATION/POSITION TIME  TEMP    WIND        PRES    WAVE   SWELL
                       AIR SEA DIR/SP/G            HT/PER HT/PER
                 (UTC) (F)     (DEG/KT/KT) (MB)    (FT/S) (FT/S)
44066 TX TWR #4  1200   57 66  330/ 19/ 25 1007.0R   8/ 7   2/10
CAPE MAY NJ      1200   58 62  320/ 16/ 22 1010.5F
LEWES DE         1200   55 57  290/ 13/ 14 1011.3R
15NM E FENWICK I 1200   59 64  300/ 19/ 25 1010.5R   5/ 5   2/ 9
OCEAN-CITY-INLET 1200   54 60  290/  8/ 11 1011.6R
WACHAPREAGUE VA  1200   57 59  300/  1/  9 1013.4R
THOMAS POINT MD  1200   54 61  300/ 14/ 16 1014.6R
GOOSES REEF MD   1200   56     320/ 17/ 21 1013.7R
COVE POINT MD    1200   55     330/ 16/ 24 1013.3R
SOLOMONS ISLAND  1200      63                N/A
BISHOPS HEAD MD  1200   56 55  310/ 13/ 19 1012.9R
PINEY POINT MD   1200          330/ 24/ 26   N/A
POTOMAC MD       1200   58     330/ 19/ 23 1013.6R
CAMBRIDGE MD     1200   56 60  300/ 13/ 17 1012.9R
LEWISETTA VA     1200   56 58  320/ 14/ 17 1014.3R
RAPPAHANNOCK LGT 1200          300/ 21/ 24 1014.5R
STINGRAY PT      1200   57     310/ 17/ 21 1014.9R
YORK RVR RNG VA  1200   55     320/ 16/ 19 1014.0S
YORKTOWN VA      1200   56 64  310/ 17/ 20 1014.4R
JAMESTOWN VA     1200   53     350/ 12/ 14   N/A
DOMINION TERM VA 1200   56     320/ 13/ 16 1014.6R
KIPTOPEKE VA     1200      64  340/ 20/ 25   N/A
CHES BAY BRIDGE  1200   58 65  300/ 17/ 20 1014.0R
CHESAPEAKE LGHT  1100   59     320/ 23/ 25 1014.3R
WILLOUBY STN VA  1200   56     330/ 16/ 19 1013.4R
S CRANEY ISL VA  1200          280/  6/ 12 1014.5S
CAPE HENRY BUOY  1100      67                N/A     5/ 6
1ST LANDING BUOY 1200   59     310/ 21/ 25 1013.8S
CAPE CHARLES BUO 1200      67                N/A     4/ 8   2/ 8
64NM E OF VA BCH 1200   62 66  320/ 19/ 23 1012.1R   6/ 6   2/14
DUCK PIER NC     1200   54 66  300/ 13/ 18 1013.6R
44100 DUCK FRF   1200      67                N/A     5/ 6   2/11
44056 DUCK FRF   1200                        N/A     4/ 6
OREGON INLET NC  1200   57 64  310/ 12/ 18 1014.2S
HATTERAS NC      1200   59 64  340/ 18/ 22 1015.2R
DIAMOND SHLS NC  1200   62     320/ 17/ 23 1014.6R   4/ 6   2/ 8
CAPE LOOKOUT NC  1100   57     350/ 11/ 12 1015.2R
$$



USA.gov is the U.S. government's official web portal to all federal, state and local government web resources and services.